sat.trackr.live / text

‹ back to catalog

STARLINK-4672

NORAD 53592 · 2022-104E

PAYLOAD ACTIVE UNKNOWN

§ Identity

Operator
Country
US
Launch date
2022-08-28
Launch site
AFETR
Launch vehicle
Mass (kg)
RCS (m²)

Purposes: comms

External: N2YO · Heavens-Above · Gunter

§ Orbital elements

Epoch: 2026-05-24T14:32:45.268800Z

Period
95.44 min
Inclination
53.2164°
Eccentricity
0.0000924
Mean motion
15.08834958 rev/d
Perigee alt
539.1 km
Apogee alt
540.4 km
Semi-major
6,917.9 km
B*
-3.5362e-5
RAAN
263.4590°
Arg perigee
87.5317°
Mean anomaly
272.5781°
Rev number
20,740

§ Raw data

STARLINK-46721 53592U 22104E   26144.60607950 -.00000850  00000+0 -35362-4 0  99902 53592  53.2164 263.4590 0000924  87.5317 272.5781 15.08834958207408

JSON: /api/v1/satellites/53592 · /tle

For live sub-satellite position, see the globe view (requires WebGL).

§ Visibility from observer

Set your observer location to see the next 7 days of passes ≥ 10°. The values pass through the URL so the page stays shareable.

No JS? Fill the form by hand. The geolocation button needs JavaScript.